Racecast

Isabella Johnson

Unattached (TX) · 12 · SECMI D1MONROE · Compare head to head

Athlete rating 124.1 2020 TF season
Best race 151.0 XC
Races 106
Seasons 6 2015 — 2020

RankedNation #3689·MI #101·AREA #70·Team #374 ?

Rating scale ?

Cross Country

2019 XC 139.9

Temperance Bedford (MI) · Grade 12

Date Meet Event Result Place Rating Difficulty PR/SR Flags
2019-11-02 Michigan International Speedway (MIS) 5000m 19:46.9 98th · 2nd on team 135.3 +0.022 CSR
2019-10-26 Lake Erie Metro Park OFFICIAL 5000m 19:26.6 12th · 1st on team 141.4 +0.055
2019-10-17 Hudson Mills Metropark - OFFICIAL 5000m 19:04.2 5th · 1st on team 141.7 +0.036 CSR
2019-10-05 Portage West MS 5000m 18:35.1 11th · 1st on team 144.9 +0.038 ★CR SR CSR RSR
2019-09-28 Lake Erie Metro Park OFFICIAL 5000m 19:22.6 1st · 1st on team 141.0 +0.055 SR CSR RSR
2019-09-24 Indian Creek OFFICIAL 5000m 20:00.4 10th · 1st on team 136.5 +0.039 CSR
2019-09-21 Ella Sharp Park OFFICIAL 5000m 19:35.4 19th · 1st on team 138.5 +0.038 SR CSR RSR

2018 XC 139.2

Unat MI (MI) · Grade 11

Date Meet Event Result Place Rating Difficulty PR/SR Flags
2018-11-11 Laverne Gibson Course 5000m 19:04.3 78th · 4th on team 137.6 +0.010 CSR
2018-11-03 Michigan International Speedway (MIS) 5000m 19:03.2 45th · 1st on team 140.3 +0.022 CSR
2018-10-27 Lake Erie Metro Park OFFICIAL 5000m 19:20.9 5th · 1st on team 141.7 +0.055
2018-10-18 Hudson Mills Metropark - OFFICIAL 5000m 18:50.4 3rd · 1st on team 142.4 +0.036 ★CR CSR
2018-10-13 Munson Park 5000m 18:59.3 1st · 1st on team 143.5 +0.054 ★CR CSR
2018-10-09 Indian Creek OFFICIAL 5000m 19:23 1st · 1st on team 141.7 +0.039 CSR
2018-09-29 Lake Erie Metro Park OFFICIAL 5000m 19:10.6 1st · 1st on team 142.9 +0.055 CSR
2018-09-25 Cass Benton Park OFFICIAL 5000m 20:38 1st · 1st on team 137.1 +0.091 ★CR CSR
2018-09-22 Ella Sharp Park OFFICIAL 5000m 18:26.3 6th · 1st on team 145.0 +0.038 ★PR ★CR SR CSR RSR
2018-09-08 Hedges Boyer Park 5000m 19:23.3 11th · 1st on team 130.1 -0.036 ★CR SR CSR RSR
2018-09-06 Willow Metropark OFFICIAL 5000m 20:55.6 30th · 1st on team 129.2 +0.048 ★CR SR CSR RSR

2017 XC 138.6

Unattached (MI) (MI) · Grade 10

Date Meet Event Result Place Rating Difficulty PR/SR Flags
2017-11-12 Laverne Gibson Course 5000m 18:49.8 55th · 10th on team 138.0 +0.010 ★CR CSR
2017-11-04 Michigan International Speedway (MIS) 5000m 18:51.2 49th · 1st on team 140.6 +0.022 ★CR CSR
2017-10-28 Lake Erie Metro Park OFFICIAL 5000m 19:04.6 4th · 1st on team 143.2 +0.055
2017-10-19 Hudson Mills Metropark - OFFICIAL 5000m 19:09.1 4th · 1st on team 141.3 +0.036 CR CSR
2017-10-10 Indian Creek OFFICIAL 5000m 18:43.9 1st · 1st on team 144.4 +0.039 PR ★CR SR CSR RSR
2017-10-07 Portage West MS 5000m 20:29.8 74th · 1st on team 133.0 +0.038 CSR
2017-09-30 Lake Erie Metro Park OFFICIAL 5000m 18:58.1 1st · 1st on team 143.3 +0.055 PR ★CR SR CSR
2017-09-23 Ella Sharp Park OFFICIAL 5000m 19:10.7 12th · 1st on team 144.3 +0.038 CR SR CSR RSR
2017-09-12 Hudson Mills Metropark - OFFICIAL 5000m 19:20 3rd · 1st on team 139.3 +0.036 SR CSR RSR
2017-09-09 Hedges Boyer Park 5000m 19:45.1 17th · 1st on team 126.9 -0.036 CR SR CSR
2017-08-26 Boy Scout Camp Lakota 5000m 19:52 2nd · 1st on team 130.0 -0.003 ★CR SR CSR RSR

2016 XC 132.5

Temperance Bedford (MI) · Grade 9

Date Meet Event Result Place Rating Difficulty PR/SR Flags
2016-11-05 Michigan International Speedway (MIS) 5000m 21:07.9 201st · 2nd on team 126.2 +0.022 CR CSR
2016-10-20 Hudson Mills Metropark - OFFICIAL 5000m 19:10.6 4th · 1st on team 139.9 +0.036 PR CR SR CSR
2016-10-15 Hudson Mills Metropark - OFFICIAL 5000m 19:18.5 3rd · 1st on team 140.3 +0.036 PR CR SR CSR
2016-10-08 Portage West MS 5000m 19:46 57th · 1st on team 136.4 +0.038 CR CSR
2016-10-01 Pearson's Metro Park 5000m 19:47.3 3rd · 1st on team 128.1 -0.022 ★CR CSR
2016-09-27 Pioneer HS 5000m 22:10.2 10th · 1st on team 126.2 +0.067 ★CR CSR
2016-09-24 Ella Sharp Park OFFICIAL 5000m 19:27.4 22nd · 1st on team 138.5 +0.038 PR CR SR CSR
2016-09-17 Springfield Oaks County Park OFFICIAL 5000m 20:59 9th · 1st on team 135.8 +0.067 ★CR CSR
2016-09-13 Heritage Park (Adrian) OFFICIAL 5000m 19:58.9 7th · 1st on team 141.2 +0.084 PR ★CR SR CSR RSR
2016-09-10 Hedges Boyer Park 5000m 20:32 62nd · 1st on team 122.7 -0.036 PR CR SR CSR
2016-08-27 Boy Scout Camp Lakota 5000m 20:47.1 4th · 1st on team 124.4 -0.003 PR CR SR CSR
2016-08-25 Heritage Park (Adrian) OFFICIAL 5000m 21:43.5 5th · 1st on team 129.8 +0.084 PR CR SR CSR RSR

2015 XC 131.1

Temperance Bedford (MI) · Grade 8

Date Meet Event Result Place Rating Difficulty PR/SR Flags
2015-10-24 Hudson Mills Metropark - OFFICIAL 2414m 12:46.1 11th · 2nd on team 105.4 +0.025 ★PR ★CR SR CSR
2015-10-17 Munson Park 3200m 12:53.9 2nd · 2nd on team 146.3 +0.034
2015-10-14 Munson Park 3200m 12:38 2nd · 1st on team 148.3 +0.034 ★PR ★CR SR CSR
2015-09-30 Hudson Mills Metropark - OFFICIAL 3200m 12:55.1 5th · 2nd on team 151.0 +0.062 PR ★CR ★R SR CSR RSR
2015-09-26 Sterling State Park 3218m 13:11 3rd · 2nd on team 148.4 +0.057 ★PR ★CR R SR CSR RSR
2015-09-16 Mill Pond Park 3621m 15:16.8 7th · 3rd on team 96.5 +0.099 ★PR ★CR SR CSR
2015-09-12 Hedges Boyer Park 3200m 13:36 4th · 2nd on team 121.8 -0.089 PR ★CR R SR CSR RSR

Track & Field

2020 TF 123.5

Unattached (TX) · Grade 12

Date Meet Event Result Place Rating Difficulty PR/SR Flags
2020-02-23 MITS Indoor State Finals 1600m 5:38.08 39th · 17th on team 122.5 -0.042
2020-02-08 SVSU - MITS #5 1600m 5:29.02 24th · 24th on team 124.5 -0.041 SR RSR

2019 TF 123.8

Temperance Bedford (MI) · Grade 11

Date Meet Event Result Place Rating Difficulty PR/SR Flags
2019-04-23 SEC Red Division - Bedford vs Saline 200m 29.74 6th · 5th on team -0.033 ★PR SR
2019-04-23 SEC Red Division - Bedford vs Saline 1600m 5:15.83 1st · 1st on team 131.8 -0.033 RSR
2019-04-11 Holland Springfield Invitational 800m 2:40.62 6th · 2nd on team 115.9 -0.029
2019-04-11 Holland Springfield Invitational 1600m 5:51.4 1st · 1st on team 118.7 -0.029
2019-04-09 SEC-R: Bedford @ Pioneer 800m 2:37.15 4th · 1st on team 118.3 -0.028 SR
2019-04-09 SEC-R: Bedford @ Pioneer 400m 1:07.91 2nd · 1st on team -0.028 SR
2019-04-05 Whitmer Golden W Invitational 1600m 5:13.59 1st · 1st on team 129.8 -0.040 SR RSR
2019-03-23 Bedford @ Ida Scrimmage 1600m 5:26.2 1st · 1st on team 128.1 -0.022 SR RSR

2018 TF 125.1

Temperance Bedford (MI) · Grade 10

Date Meet Event Result Place Rating Difficulty PR/SR Flags
2018-05-26 2018 MITCA D1 Team State Championships 1600m 5:19.23 3rd · 1st on team 129.6 -0.028
2018-05-26 2018 MITCA D1 Team State Championships 3200m 12:35.98 12th · 2nd on team 118.2 -0.028
2018-05-18 MHSAA LP Region 03-1 @ Saline 3200m 11:20.74 5th · 1st on team 130.7 -0.042 ★PR SR
2018-05-11 SEC Red Championship 1600m 5:30.83 6th · 1st on team 125.1 -0.034
2018-05-07 SEC Red: Huron @ Bedford 800m 2:26 1st · 1st on team 126.2 -0.033 ★PR SR
2018-05-07 SEC Red: Huron @ Bedford 400m 1:04.94 4th · 4th on team -0.033 ★PR SR
2018-04-21 Whitmore Lake HS Invite 1600m 5:12.1 1st · 1st on team 132.0 -0.029 ★PR SR RSR
2018-04-12 Springfield Invatational 1600m 5:29.41 2nd · 1st on team 126.2 -0.029 RSR
2018-04-10 SEC Red Division - Pioneer @ Bedford 1600m 5:27.9 1st · 1st on team 125.7 -0.033 SR RSR
2018-04-06 Whitmer Golden W Invitational 1600m 5:57.21 2nd · 1st on team 115.5 -0.040
2018-02-10 MITS - SVSU #5 Distance Festival 3200m 12:06.63 28th · 28th on team 121.8 -0.041 SR
2018-02-03 MITS - EMU #7 1600m 5:31.86 10th · 1st on team 124.7 -0.042 SR RSR

2017 TF 121.9

Temperance Bedford (MI) · Grade 9

Date Meet Event Result Place Rating Difficulty PR/SR Flags
2017-05-25 Beck Freshman Invitational 3200m 11:23 1st · 1st on team 131.4 -0.022 PR SR RSR
2017-05-25 Beck Freshman Invitational 1600m 5:22 1st · 1st on team 129.5 -0.022 PR SR
2017-05-19 MHSAA LP Regional 03-1 @ Saline 3200m 11:28.8 4th · 1st on team 128.2 -0.042 PR SR RSR
2017-04-28 Nancy Erme Relays 3200m 11:43.7 1st · 1st on team 125.8 -0.040 PR SR RSR
2017-04-25 SEC Red: Bedford @ Skyline 800m 2:37.33 4th · 2nd on team 116.3 -0.033 PR SR
2017-04-25 SEC Red: Bedford @ Skyline 1600m 5:34.45 3rd · 1st on team 123.0 -0.033 PR SR RSR
2017-04-08 Whitmer Golden W Invitational 1600m 5:40.79 3rd · 1st on team 119.5 -0.040 PR SR
2017-03-28 SEC Red: Bedford @ Pioneer lj 13-05.00 -0.028
2017-03-28 SEC Red: Bedford @ Pioneer 1600m 5:46.12 2nd · 1st on team 119.6 -0.028 PR SR RSR
2017-03-28 SEC Red: Bedford @ Pioneer 800m 2:56.86 8th · 2nd on team 104.3 -0.028 SR

2016 TF 124.8

Temperance Bedford (MI) · Grade 8

Date Meet Event Result Place Rating Difficulty PR/SR Flags
2016-05-18 Saline Hornet MS Relays lj 11-11.25 -0.042
2016-05-18 Saline Hornet MS Relays 1600m 6:02.1 3rd · 2nd on team 121.5 -0.042
2016-05-17 Bedford @ Chelsea lj 12-05.00 -0.029
2016-05-17 Bedford @ Chelsea 1600m 5:56.84 2nd · 1st on team 125.1 -0.029
2016-05-12 Bedford at Lincoln 3200m 12:59 1st · 1st on team 123.8 -0.032
2016-05-09 Dexter Mill Creek @ Bedford lj 12'4.75 -0.033
2016-05-09 Dexter Mill Creek @ Bedford 1600m 5:56 1st · 1st on team 125.0 -0.033
2016-05-05 Bedford MS @ Saline MS lj 10'8.5 -0.038
2016-05-05 Bedford MS @ Saline MS 1600m 5:50 1st · 1st on team 126.9 -0.038 PR SR
2016-05-02 Bedford at Ypsilanti lj 12'10 -0.029
2016-04-28 Monroe @ Bedford lj 12'1 -0.033
2016-04-28 Monroe @ Bedford 800m 2:39 1st · 1st on team 126.7 -0.033 PR SR
2016-04-25 Tecumseh @ Bedford lj 12'4 -0.033
2016-04-25 Tecumseh @ Bedford 800m 2:45 2nd · 2nd on team 120.6 -0.033 PR SR
2016-04-21 Adrian @ Bedford lj 12'3" -0.033
2016-04-21 Adrian @ Bedford 3200m 12:34 1st · 1st on team 128.4 -0.033 PR SR RSR

2015 TF 110.5

Temperance Bedford (MI) · Grade 7

Date Meet Event Result Place Rating Difficulty PR/SR Flags
2015-05-14 Bedford vs Lincoln MS lj 11'.5 -0.033
2015-05-14 Bedford vs Lincoln MS 800m 2:55 1st · 1st on team 114.0 -0.033
2015-05-07 Bedford vs Saline vs Ypsilanti MS lj 11'5 -0.033
2015-05-07 Bedford vs Saline vs Ypsilanti MS 800m 2:52 1st · 1st on team 116.1 -0.033 PR R SR RSR
2015-04-30 Bedford vs Monroe MS 800m 3:03 2nd · 2nd on team 108.9 -0.032 PR R SR RSR
2015-04-23 Bedford @Adrian MS lj 11'4 -0.024
2015-04-16 Time Trials MS Girls 400m 1:28.14 17th · 17th on team -0.033 PR SR
2015-04-16 Time Trials MS Girls 800m 3:14 6th · 6th on team 102.9 -0.033 PR R SR RSR
2015-04-16 Time Trials MS Girls 200m 36.24 25th · 25th on team -0.033 PR SR
2015-04-16 Time Trials MS Girls 100m 18.24 37th · 37th on team -0.033 ★PR SR